Location: Lhota
(50.0887°N, 14.0116°E)
Time: 18:52:36
(UTC+00:00)

Daily predictions for brighter satellites

Satellite Brightness Start Highest point End
(mag) Time Altitude Azimuth Time Altitude Azimuth Time Altitude Azimuth
Cosmos 1125 Rocket 4.1 19:23:08 10° NNW 19:28:15 46° ENE 19:33:20 10° SE
CZ-4B R/B 3.8 19:24:14 10° S 19:29:41 60° WSW 19:35:04 10° NNW
BlueWalker 3 2.0 19:28:13 10° WNW 19:31:52 73° NNE 19:35:30 10° ESE
Cosmos 1400 Rocket 2.7 19:32:29 10° S 19:36:06 59° E 19:39:44 10° NNE
SWAS 4.4 19:32:02 10° SSW 19:36:08 84° WNW 19:40:14 10° NNE
Cosmos 1346 Rocket 3.2 19:32:40 10° N 19:36:13 41° ENE 19:39:44 10° SE
CZ-4C R/B 3.4 19:30:44 10° NW 19:37:41 62° SW 19:46:09 10° SSE
CZ-4B R/B 4.2 19:35:31 10° S 19:40:09 50° W 19:44:55 10° NNW
Cosmos 1953 Rocket 3.8 19:36:37 10° NNW 19:41:06 78° W 19:45:32 10° S
Ariane Rocket 3.8 19:37:16 10° SE 19:41:54 37° ENE 19:46:33 10° N
Cosmos 1697 Rocket 3.0 19:36:21 10° NNW 19:41:57 58° NE 19:47:31 10° SE
Cosmos 44 3.5 19:37:43 10° NW 19:42:11 58° NE 19:46:51 10° SE
Meteor 1-25 Rocket 4.5 19:42:13 10° NNW 19:47:45 71° W 19:53:15 10° S
Cosmos 2074 Rocket 4.5 19:42:02 10° NNW 19:48:12 64° W 19:54:18 10° S
Lacrosse 5 rocket 0.9 19:45:49 10° WNW 19:49:24 86° SW 19:52:35 12° SE
SPOT 5 3.9 19:48:02 10° SSW 19:52:06 39° W 19:56:10 10° NNW
Cosmos 1814 Rocket 4.0 19:47:45 10° SSW 19:52:52 86° WNW 19:58:06 10° NNE
Cosmos 1867 3.8 19:50:13 10° NW 19:55:42 69° NE 20:00:45 12° SE
Cosmos-2242 3.2 19:52:16 10° S 19:56:26 54° E 20:00:37 10° NNE
Nadezhda 1 Rocket 4.0 19:50:34 10° S 19:56:39 83° E 20:02:51 10° N
Cosmos 1656 4.4 19:52:17 10° NW 19:57:42 49° WSW 20:03:01 10° S
Cosmos 2154 Rocket 4.4 19:51:58 10° NNW 19:58:06 64° W 20:04:13 10° S
Cosmos 2341 Rocket 4.3 19:54:29 10° N 20:00:40 56° ENE 20:06:24 12° SSE
SeaSat 1 3.5 19:57:10 10° ESE 20:01:38 36° NE 20:06:06 10° NNW
Cosmos 2082 Rocket 3.8 20:00:20 12° SE 20:02:58 16° E 20:06:12 10° ENE
Okean O Rocket 2.7 19:59:15 10° S 20:03:23 42° W 20:07:32 10° NNW
Cosmos 1933 3.5 19:59:39 10° SSW 20:03:29 69° W 20:07:21 10° N
Cosmos 2221 4.0 20:01:08 13° SE 20:03:35 20° E 20:06:39 10° NE
Iridium 4 Rocket 4.0 20:00:39 10° N 20:05:41 66° W 20:11:07 10° S
SPOT 3 Rocket 3.7 20:02:59 12° SSE 20:07:43 64° ENE 20:12:48 10° N
Okean-O 3.4 20:04:36 10° S 20:08:52 51° W 20:13:09 10° NNW
ERS-1 Rocket 3.6 20:06:02 10° S 20:10:55 53° W 20:15:52 10° NNW
Cosmos 1743 3.7 20:14:21 10° NNW 20:17:32 37° W 20:20:42 10° SSW
ISS -3.8 20:17:12 10° WNW 20:20:34 89° N 20:23:18 15° ESE
Cosmos 2084 Rocket 3.9 20:18:27 10° SSW 20:22:24 38° SE 20:26:20 10° ENE
Spot 2 Rocket 3.7 20:17:40 10° S 20:22:40 68° WSW 20:27:42 10° NNW
BREEZE-M R/B 4.2 20:02:41 10° W 20:22:57 81° SSW 20:27:31 10° ESE
NOSS 3-1 (C) 3.0 20:19:39 10° SSW 20:24:17 56° SE 20:29:54 10° NE
ARIANE 6 FM1 Upper Stage 2.7 20:20:19 10° SW 20:24:20 80° NW 20:28:24 10° NE
Cosmos 2333 Rocket 4.4 20:23:20 10° N 20:27:05 17° NNE 20:30:49 10° ENE
Cosmos 1833 Rocket 2.7 20:24:49 10° SSW 20:30:28 88° ESE 20:36:09 10° NNE
Cosmos 1356 Rocket 3.5 20:28:39 15° S 20:31:58 59° E 20:36:01 10° NNE
Cosmos 1733 3.2 20:30:52 10° NNW 20:33:54 52° W 20:36:07 16° S
Cosmos 1821 Rocket 4.2 20:30:03 10° N 20:36:05 56° ENE 20:40:28 19° SSE
Cosmos 158 Rocket 4.5 20:34:04 10° SW 20:39:21 66° WNW 20:44:43 10° NNE
Cosmos 2218 Rocket 4.0 20:34:28 10° N 20:40:54 87° E 20:46:01 16° S
Cosmos 1805 3.4 20:45:53 10° N 20:49:15 46° ENE 20:50:42 28° SE
SWARM A 4.2 20:48:26 23° S 20:50:26 88° W 20:53:50 10° N
PSLV R/B 4.3 20:49:41 18° SSW 20:51:45 40° W 20:54:50 10° NNW
Cosmos 1812 Rocket 3.4 20:48:57 17° S 20:52:13 83° E 20:56:34 10° NNE
Cosmos 1980 Rocket 2.2 20:48:08 10° NNW 20:53:47 89° ENE 20:57:27 23° SSE
NOSS 3-1 (A) 3.4 20:50:27 16° S 20:53:58 42° ESE 20:59:18 10° NE
Terra 3.7 20:51:26 10° SSW 20:55:14 24° W 20:59:04 10° NW
USA 234 3.3 20:49:18 10° ENE 20:55:53 90° SE 21:02:27 10° WSW
ATLAS CENTAUR R/B 2.4 20:52:41 10° WSW 20:56:15 42° NW 20:59:57 10° NNE
Cosmos 1315 Rocket 2.6 20:55:12 22° S 20:57:40 78° E 21:01:34 10° NNE
BREEZE-M DEB (TANK) 4.2 20:41:25 10° W 21:00:28 87° S 21:05:14 10° E
Cosmos 2208 Rocket 4.0 20:55:37 10° SSW 21:01:00 87° ESE 21:06:22 10° NNE
Cosmos 2181 Rocket 4.0 20:58:42 14° S 21:04:08 87° E 21:10:34 10° N
SL-16 R/B 3.4 20:59:39 10° NNW 21:04:49 34° NE 21:09:15 13° ESE
DELTA 2 DEB (DPAF) 3.8 21:03:15 10° NNE 21:07:10 62° ESE 21:09:02 29° S
Meteor 1-11 Rocket 3.9 21:02:19 10° N 21:07:46 57° ENE 21:10:57 25° SE
BlueWalker 3 2.7 21:06:08 10° W 21:09:25 32° SW 21:10:12 29° S
SL-24 R/B 4.1 21:05:12 10° NNE 21:09:32 86° WNW 21:12:49 18° SSW
Cosmos 2322 Rocket 3.8 21:08:50 10° NNW 21:13:37 27° NE 21:18:21 10° E
Cosmos 1975 4.0 21:11:12 10° NNE 21:14:23 27° ENE 21:15:35 22° ESE
CZ-4C R/B 3.5 21:15:25 10° NNE 21:18:55 43° E 21:19:42 37° SE
Meteor 1-14 Rocket 4.4 21:14:38 10° NNW 21:20:13 70° W 21:23:50 23° S
Ariane Rocket 4.2 21:16:59 14° SSW 21:20:48 35° W 21:25:28 10° NNW
Cosmos 1238 Rocket 3.2 21:22:13 20° SSW 21:24:28 49° WNW 21:27:41 10° N
Cosmos 1697 Rocket 4.1 21:20:49 10° NW 21:25:34 28° WSW 21:29:17 14° SSW
Nadezhda 3 Rocket 4.0 21:21:58 24° S 21:25:44 67° E 21:31:57 10° NNE
ARIANE 5 R/B 3.2 21:23:51 27° SE 21:25:45 45° ENE 21:29:56 10° N
Lacrosse 5 rocket 3.1 21:24:20 10° W 21:26:16 14° SW 21:26:35 14° SW
Cosmos 1842 Rocket 4.1 21:25:47 31° SE 21:27:06 40° E 21:31:08 10° NNE
Cosmos 1766 3.8 21:27:36 10° N 21:30:50 35° ENE 21:31:35 31° ESE
Cosmos 2278 4.4 21:25:42 10° NNW 21:31:10 48° NE 21:34:47 21° ESE
Cosmos 1934 Rocket 4.2 21:25:52 10° N 21:32:03 60° ENE 21:35:32 27° SSE
Cosmos 1470 4.4 21:29:42 10° NNE 21:32:24 20° ENE 21:33:25 18° E
Cosmos 1908 4.3 21:30:13 10° NNE 21:32:56 24° ENE 21:33:32 22° E
CENTAUR R/B 4.0 21:25:29 10° NW 21:32:57 48° NNE 21:41:41 10° ESE
Cosmos 2360 Rocket 3.7 21:28:28 10° NNW 21:33:24 30° NE 21:38:04 11° ESE
ATLAS 3B R/B 3.5 21:30:06 25° SSE 21:33:29 37° ESE 21:40:26 10° NE
Cosmos 1536 3.3 21:32:20 10° NNW 21:36:02 48° W 21:37:32 30° SSW
Cosmos 2369 3.8 21:33:01 10° NNW 21:38:40 68° WSW 21:41:29 30° S
SeaSat 1 3.1 21:36:40 27° S 21:38:56 44° WSW 21:43:39 10° NW
Cosmos 2221 3.4 21:37:29 17° SW 21:40:24 43° WNW 21:44:25 10° N
Cosmos 405 Rocket 2.3 21:37:34 10° N 21:41:00 74° ENE 21:41:40 54° SE
CZ-2C R/B 3.9 21:38:05 10° NNE 21:42:23 50° E 21:43:42 37° SSE
Cosmos 2082 Rocket 2.1 21:42:05 19° SSW 21:46:11 87° ESE 21:51:51 10° NNE
Cosmos 1674 3.0 21:48:35 30° WNW 21:48:35 30° WNW 21:50:20 10° N
Timation 1 Rocket 4.3 21:47:15 24° SSW 21:51:01 73° ESE 21:57:01 10° NE
ISS -2.2 21:54:13 10° W 21:56:13 23° WSW 21:56:13 23° WSW
Okean 3 Rocket 3.5 21:53:14 10° N 21:57:40 86° ENE 21:59:09 42° SSE
COBE Rocket 4.2 21:52:44 10° N 21:57:49 67° WNW 22:00:56 24° SSW
Meteor 1-10 Rocket 4.5 21:54:20 23° SSW 21:58:10 73° WNW 22:04:01 10° N
Landsat 5 3.7 21:55:03 10° NNE 21:59:09 54° ESE 22:00:11 42° SSE
Cosmos 1766 Rocket 4.3 21:56:16 10° NNW 22:00:26 43° W 22:02:12 28° SW
COSMOS 2406 3.1 21:59:10 28° SSW 22:02:17 76° ESE 22:08:00 10° NNE
Cosmos 1842 3.8 22:02:54 34° E 22:03:00 34° E 22:06:11 10° NNE
USA 59 Rocket -1.0 22:10:23 80° ESE 22:10:23 80° ESE 22:13:18 10° NE
Cosmos 2333 Rocket 2.6 22:06:57 10° NNW 22:12:38 59° NE 22:15:53 25° SE
MetOp-A 4.2 22:10:43 35° S 22:12:49 63° WSW 22:17:58 10° NNW
Cosmos 1300 3.9 22:14:52 10° NNE 22:17:27 22° ENE 22:17:48 22° E
Cosmos 1151 Rocket 3.5 22:19:28 38° SE 22:20:18 43° E 22:24:19 10° NNE
ALOS 2 2.5 22:19:44 45° SSE 22:21:04 82° ENE 22:25:29 10° NNW
NOSS 2-1 (E) 2.6 22:21:20 83° SSW 22:21:27 86° SE 22:24:29 10° NE
Cosmos 2219 Rocket 3.2 22:23:08 10° NNW 22:28:27 41° NE 22:32:40 15° ESE
Meteor 2-4 Rocket 3.7 22:30:52 36° S 22:33:21 86° E 22:39:13 10° NNE
ATLAS CENTAUR R/B 4.5 22:31:23 10° NW 22:33:21 13° NNW 22:35:19 10° N
Meteor 1-27 Rocket 4.1 22:30:55 26° SW 22:33:59 58° WNW 22:39:29 10° N
Cosmos 1980 Rocket 4.1 22:33:32 10° WNW 22:36:59 17° W 22:39:12 14° SW
NOSS 2-1 (D) 3.2 22:36:14 42° W 22:37:00 56° NW 22:39:57 10° NE
Sich 1 3.1 22:33:13 10° NNW 22:37:25 62° W 22:38:23 47° SSW
USA 234 4.0 22:32:22 10° ENE 22:38:41 53° NNW 22:44:59 10° W
Cosmos 1680 Rocket 4.3 22:39:24 30° SE 22:40:43 35° ESE 22:45:26 10° NE
Genesis I 4.2 22:38:59 10° NW 22:40:24 24° WNW 22:40:24 24° WNW
NOSS 3-1 (A) 4.2 22:39:49 10° WSW 22:44:41 46° NNW 22:50:40 10° NE
PSLV R/B 3.4 22:41:50 10° NNE 22:46:01 71° ESE 22:46:52 53° SSE
Cosmos 2056 Rocket 4.0 22:42:53 10° NNW 22:48:09 56° ENE 22:50:55 27° SE
SL-16 R/B 2.5 22:43:39 10° NW 22:49:10 53° WSW 22:51:04 37° SSW
Cosmos 1975 4.1 22:46:35 10° NNW 22:49:39 25° W 22:50:13 24° WSW
Cosmos 1707 2.7 22:51:13 51° W 22:51:30 53° WNW 22:54:49 10° N
Cosmos 1624 Rocket 4.4 22:47:02 10° NNW 22:52:10 58° ENE 22:54:51 27° SE
H-2A R/B 4.1 22:50:24 17° ESE 22:52:17 25° ENE 22:55:29 10° N
Cosmos 1500 Rocket 3.9 22:48:15 10° NNW 22:52:30 53° W 22:53:33 42° SW
Cosmos 1538 Rocket 4.1 22:50:41 31° SW 22:53:08 69° WNW 22:58:18 10° NNE
Geosat FO 4.5 22:54:35 58° ENE 22:54:45 59° NE 22:57:44 10° NNW
NOSS 2-1 (C) 4.0 22:55:40 25° W 22:56:57 38° NW 22:59:47 10° NNE
Cosmos 2322 Rocket 2.2 22:52:33 10° NNW 22:58:13 73° WSW 23:00:24 38° S
Cosmos 1633 Rocket 3.7 22:55:07 10° N 22:59:21 47° ENE 23:00:47 34° SE
Cosmos 1408 Rocket 4.4 22:57:20 10° NNW 23:01:20 36° W 23:02:20 31° WSW
ARIANE 5 R/B 4.2 23:01:14 21° WSW 23:02:18 23° W 23:05:45 10° NW
COSMOS 2428 4.2 22:58:21 10° NNW 23:03:33 34° NE 23:08:43 10° ESE
Cosmos 1459 Rocket 4.3 22:57:44 10° N 23:03:48 59° ENE 23:07:06 28° SE
Cosmos 1470 3.5 23:03:53 10° NNW 23:07:07 33° W 23:07:19 33° W
Cosmos 1066 Rocket 4.2 23:04:56 36° SSW 23:07:19 81° WNW 23:13:07 10° N
Meteor 2-10 Rocket 4.0 23:02:34 10° N 23:08:18 67° ENE 23:11:09 31° SSE
Cosmos 1805 Rocket 4.4 23:04:24 10° NNW 23:08:32 40° W 23:09:35 34° SW
GP-B 3.1 23:10:59 10° N 23:15:22 70° W 23:16:31 47° SSW
Exosat Rocket 4.1 23:12:25 10° NW 23:17:07 41° WSW 23:18:24 34° SW
Meteor 1-18 Rocket 4.5 23:14:33 32° SSW 23:17:15 66° WNW 23:23:08 10° N
Cosmos 2360 Rocket 2.3 23:12:14 10° NW 23:17:47 62° WSW 23:19:47 38° S
Cosmos 2173 Rocket 4.1 23:12:10 10° N 23:18:35 78° E 23:21:47 31° SSE
Cosmos 1758 4.0 23:19:22 10° N 23:23:04 45° ENE 23:24:09 35° ESE
ATLAS 3B R/B 3.2 23:17:16 14° SW 23:23:50 71° NW 23:31:45 10° NE
Cosmos 1328 Rocket 3.5 23:23:10 48° SSE 23:24:13 69° E 23:28:31 10° NNE
CENTAUR R/B 3.2 23:16:07 10° NW 23:24:18 74° SW 23:31:24 19° SSE
ASTEX 1 3.4 23:19:24 10° N 23:24:20 72° W 23:26:06 40° SSW
USA 229 DEB 3.5 23:20:46 26° SW 23:24:30 86° NW 23:31:24 10° NE
USA 229 3.5 23:20:54 26° SW 23:24:36 86° NW 23:31:29 10° NE
GEOS 3 Rocket 3.9 23:21:49 12° ESE 23:26:28 66° NE 23:31:35 10° NW
CZ-2C R/B 4.3 23:24:50 10° NNE 23:30:10 37° E 23:32:57 24° SE
Cosmos 2082 Rocket 4.2 23:26:33 10° W 23:31:00 23° NW 23:35:28 10° NNE
In-Cosmos 22 4.2 23:31:00 36° S 23:33:26 80° E 23:39:14 10° NNE
Cosmos 2123 Rocket 4.3 23:30:43 30° SSE 23:33:51 62° E 23:40:06 10° NNE
Cosmos 2112 Rocket 3.9 23:41:11 38° SSW 23:43:18 89° WNW 23:48:34 10° NNE
Cosmos 1455 1.8 23:44:38 10° NNW 23:47:02 57° NW 23:47:02 57° NW
Cosmos 2237 Rocket 3.9 23:43:46 10° NNW 23:48:49 32° NE 23:53:51 10° ESE
Cosmos 1300 4.0 23:48:13 10° NW 23:50:26 21° W 23:50:26 21° W
SL-14 R/B 3.1 23:53:45 54° SSW 23:54:35 86° WNW 23:58:29 10° N
